Time,TemperatureF,DewpointF,PressureIn,WindDirection,WindDirectionDegrees,WindSpeedMPH,WindSpeedGustMPH,Humidity,HourlyPrecipIn,Conditions,Clouds,dailyrainin,SolarRadiationWatts/m^2,SoftwareType,DateUTC
2013-05-10 00:00:00,54.3,53.8,29.90,SW,224,13.0,15.0,98,0.00,,,0.46,0.00,VWS V14.01,2013-05-10 04:00:00,
2013-05-10 00:01:00,54.3,53.8,29.90,SW,223,12.0,15.0,98,0.00,,,0.46,0.00,VWS V14.01,2013-05-10 04:01:00,
2013-05-10 00:02:00,54.2,53.7,29.90,SW,224,12.0,13.0,98,0.00,,,0.00,0.00,VWS V14.01,2013-05-10 04:02:00,
2013-05-10 00:07:00,54.3,53.8,29.90,SW,229,13.0,14.0,98,0.00,,,0.00,0.00,VWS V14.01,2013-05-10 04:07:00,
2013-05-10 00:12:00,54.4,53.8,29.91,SW,225,14.0,16.0,98,0.02,,,0.02,0.00,VWS V14.01,2013-05-10 04:12:00,
2013-05-10 00:15:00,53.8,53.2,29.91,SW,230,13.0,15.0,98,0.00,,,0.46,0.00,VWS V14.01,2013-05-10 04:15:00,
2013-05-10 00:17:00,54.5,54.0,29.91,SW,232,12.0,13.0,98,0.02,,,0.02,0.00,VWS V14.01,2013-05-10 04:17:00,
2013-05-10 00:22:00,54.7,54.2,29.91,WSW,238,15.0,15.0,98,0.02,,,0.02,0.00,VWS V14.01,2013-05-10 04:22:00,
2013-05-10 00:27:00,54.8,54.2,29.91,SW,236,14.0,15.0,98,0.02,,,0.02,0.00,VWS V14.01,2013-05-10 04:27:00,
2013-05-10 00:30:00,53.7,53.2,29.91,SW,225,16.0,17.0,98,0.00,,,0.46,0.00,VWS V14.01,2013-05-10 04:30:00,
2013-05-10 00:32:00,54.9,54.3,29.91,SW,230,15.0,16.0,98,0.02,,,0.02,0.00,VWS V14.01,2013-05-10 04:32:00,
2013-05-10 00:37:00,55.0,54.5,29.91,SW,229,14.0,16.0,98,0.02,,,0.02,0.00,VWS V14.01,2013-05-10 04:37:00,
2013-05-10 00:42:00,55.1,54.5,29.91,SW,236,13.0,16.0,98,0.02,,,0.02,0.00,VWS V14.01,2013-05-10 04:42:00,
2013-05-10 00:45:00,53.9,53.3,29.91,SW,223,14.0,16.0,98,0.00,,,0.46,0.00,VWS V14.01,2013-05-10 04:45:00,
2013-05-10 00:47:00,55.1,54.5,29.91,SW,229,14.0,15.0,98,0.02,,,0.02,0.00,VWS V14.01,2013-05-10 04:47:00,
2013-05-10 00:52:00,55.1,54.5,29.91,SW,224,17.0,18.0,98,0.02,,,0.02,0.00,VWS V14.01,2013-05-10 04:52:00,
2013-05-10 00:57:00,54.9,54.3,29.91,SW,228,13.0,18.0,98,0.02,,,0.02,0.00,VWS V14.01,2013-05-10 04:57:00,
2013-05-10 01:00:00,54.3,53.8,29.90,SW,228,12.0,15.0,98,0.00,,,0.00,0.00,VWS V14.01,2013-05-10 05:00:00,
2013-05-10 01:02:00,54.8,54.2,29.91,SW,223,14.0,15.0,98,0.02,,,0.02,0.00,VWS V14.01,2013-05-10 05:02:00,
2013-05-10 01:07:00,54.9,54.3,29.90,SW,230,15.0,15.0,98,0.02,,,0.02,0.00,VWS V14.01,2013-05-10 05:07:00,
2013-05-10 01:12:00,55.1,54.5,29.90,SW,227,14.0,15.0,98,0.02,,,0.02,0.00,VWS V14.01,2013-05-10 05:12:00,
2013-05-10 01:15:00,54.5,54.0,29.91,SW,229,12.0,16.0,98,0.02,,,0.02,0.00,VWS V14.01,2013-05-10 05:15:00,
2013-05-10 01:17:00,55.2,54.7,29.90,SW,227,13.0,14.0,98,0.00,,,0.02,0.00,VWS V14.01,2013-05-10 05:17:00,
2013-05-10 01:22:00,55.3,54.8,29.91,SW,230,12.0,14.0,98,0.00,,,0.02,0.00,VWS V14.01,2013-05-10 05:22:00,
2013-05-10 01:27:00,55.5,55.2,29.91,SW,236,11.0,14.0,99,0.00,,,0.02,0.00,VWS V14.01,2013-05-10 05:27:00,
2013-05-10 01:30:00,54.9,54.3,29.91,SW,234,12.0,16.0,98,0.02,,,0.02,0.00,VWS V14.01,2013-05-10 05:30:00,
2013-05-10 01:32:00,55.7,55.4,29.90,WSW,238,11.0,12.0,99,0.00,,,0.02,0.00,VWS V14.01,2013-05-10 05:32:00,
2013-05-10 01:37:00,56.0,55.5,29.90,SW,235,12.0,13.0,98,0.00,,,0.02,0.00,VWS V14.01,2013-05-10 05:37:00,
2013-05-10 01:42:00,56.0,55.5,29.90,WSW,237,12.0,13.0,98,0.00,,,0.02,0.00,VWS V14.01,2013-05-10 05:42:00,
2013-05-10 01:45:00,55.1,54.5,29.91,SW,232,14.0,16.0,98,0.02,,,0.02,0.00,VWS V14.01,2013-05-10 05:45:00,
2013-05-10 01:47:00,56.3,56.0,29.91,WSW,246,13.0,16.0,99,0.00,,,0.02,0.00,VWS V14.01,2013-05-10 05:47:00,
2013-05-10 01:52:00,56.5,55.9,29.91,WSW,246,13.0,16.0,98,0.00,,,0.02,0.00,VWS V14.01,2013-05-10 05:52:00,
2013-05-10 01:57:00,56.6,56.0,29.90,WSW,246,11.0,16.0,98,0.00,,,0.02,0.00,VWS V14.01,2013-05-10 05:57:00,
2013-05-10 02:00:00,54.9,54.3,29.91,SW,227,15.0,18.0,98,0.02,,,0.02,0.00,VWS V14.01,2013-05-10 06:00:00,
2013-05-10 02:02:00,56.8,56.5,29.91,WSW,255,10.0,12.0,99,0.00,,,0.02,0.00,VWS V14.01,2013-05-10 06:02:00,
2013-05-10 02:07:00,56.8,56.5,29.91,WSW,244,13.0,14.0,99,0.00,,,0.02,0.00,VWS V14.01,2013-05-10 06:07:00,
2013-05-10 02:12:00,56.9,56.6,29.91,SW,236,12.0,14.0,99,0.00,,,0.02,0.00,VWS V14.01,2013-05-10 06:12:00,
2013-05-10 02:15:00,55.2,54.7,29.91,SW,232,14.0,15.0,98,0.02,,,0.02,0.00,VWS V14.01,2013-05-10 06:15:00,
2013-05-10 02:17:00,57.0,56.4,29.91,WSW,242,11.0,12.0,98,0.00,,,0.02,0.00,VWS V14.01,2013-05-10 06:17:00,
2013-05-10 02:22:00,57.1,56.5,29.91,WSW,238,9.0,12.0,98,0.00,,,0.02,0.00,VWS V14.01,2013-05-10 06:22:00,
2013-05-10 02:27:00,57.1,56.5,29.91,SW,234,10.0,12.0,98,0.00,,,0.02,0.00,VWS V14.01,2013-05-10 06:27:00,
2013-05-10 02:30:00,55.7,55.4,29.90,SW,236,11.0,14.0,99,0.00,,,0.02,0.00,VWS V14.01,2013-05-10 06:30:00,
2013-05-10 02:32:00,56.5,55.9,29.91,SW,217,10.0,12.0,98,0.00,,,0.02,0.00,VWS V14.01,2013-05-10 06:32:00,
2013-05-10 02:37:00,56.1,55.5,29.91,SSW,207,12.0,12.0,98,0.00,,,0.02,0.00,VWS V14.01,2013-05-10 06:37:00,
2013-05-10 02:42:00,56.0,55.5,29.91,SW,217,11.0,13.0,98,0.00,,,0.02,0.00,VWS V14.01,2013-05-10 06:42:00,
2013-05-10 02:45:00,56.2,55.9,29.91,WSW,242,13.0,14.0,99,0.00,,,0.02,0.00,VWS V14.01,2013-05-10 06:45:00,
2013-05-10 02:47:00,56.0,55.5,29.91,SSW,211,11.0,12.0,98,0.00,,,0.02,0.00,VWS V14.01,2013-05-10 06:47:00,
2013-05-10 02:52:00,56.0,55.5,29.91,SW,214,11.0,12.0,98,0.00,,,0.02,0.00,VWS V14.01,2013-05-10 06:52:00,
2013-05-10 02:58:00,56.0,55.5,29.91,SW,216,11.0,12.0,98,0.00,,,0.02,0.00,VWS V14.01,2013-05-10 06:58:00,
2013-05-10 03:03:00,56.0,55.5,29.91,SW,214,12.0,12.0,98,0.00,,,0.02,0.00,VWS V14.01,2013-05-10 07:03:00,
2013-05-10 03:08:00,56.1,55.5,29.91,SW,223,9.0,12.0,98,0.00,,,0.02,0.00,VWS V14.01,2013-05-10 07:08:00,
2013-05-10 03:13:00,56.2,55.7,29.91,SW,221,7.0,12.0,98,0.00,,,0.02,0.00,VWS V14.01,2013-05-10 07:13:00,
2013-05-10 03:15:00,56.9,56.6,29.91,WSW,240,12.0,14.0,99,0.00,,,0.02,0.00,VWS V14.01,2013-05-10 07:15:00,
2013-05-10 03:18:00,56.4,55.8,29.91,SW,227,7.0,8.0,98,0.00,,,0.02,0.00,VWS V14.01,2013-05-10 07:18:00,
2013-05-10 03:23:00,56.6,56.0,29.91,SW,221,5.0,8.0,98,0.00,,,0.02,0.00,VWS V14.01,2013-05-10 07:23:00,
2013-05-10 03:28:00,56.7,56.1,29.91,SW,228,7.0,8.0,98,0.00,,,0.02,0.00,VWS V14.01,2013-05-10 07:28:00,
2013-05-10 03:30:00,56.8,56.2,29.91,SW,217,11.0,12.0,98,0.00,,,0.02,0.00,VWS V14.01,2013-05-10 07:30:00,
2013-05-10 03:33:00,56.7,56.1,29.91,WSW,240,7.0,8.0,98,0.00,,,0.02,0.00,VWS V14.01,2013-05-10 07:33:00,
2013-05-10 03:38:00,56.9,56.3,29.92,SW,234,6.0,8.0,98,0.00,,,0.02,0.00,VWS V14.01,2013-05-10 07:38:00,
2013-05-10 03:43:00,56.8,56.2,29.92,SW,234,6.0,9.0,98,0.00,,,0.02,0.00,VWS V14.01,2013-05-10 07:43:00,
2013-05-10 03:45:00,56.0,55.5,29.91,SSW,213,10.0,13.0,98,0.00,,,0.02,0.00,VWS V14.01,2013-05-10 07:45:00,
2013-05-10 03:48:00,56.8,56.2,29.92,SW,234,7.0,9.0,98,0.00,,,0.02,0.00,VWS V14.01,2013-05-10 07:48:00,
2013-05-10 03:53:00,56.8,56.2,29.92,SW,231,7.0,9.0,98,0.00,,,0.02,0.00,VWS V14.01,2013-05-10 07:53:00,
2013-05-10 03:58:00,56.9,56.3,29.92,WSW,238,5.0,9.0,98,0.00,,,0.02,0.00,VWS V14.01,2013-05-10 07:58:00,
2013-05-10 04:00:00,56.0,55.5,29.91,SW,215,12.0,12.0,98,0.00,,,0.02,0.00,VWS V14.01,2013-05-10 08:00:00,
2013-05-10 04:03:00,57.1,56.5,29.92,SW,232,4.0,5.0,98,0.00,,,0.02,0.00,VWS V14.01,2013-05-10 08:03:00,
2013-05-10 04:08:00,57.0,56.4,29.92,SW,221,6.0,6.0,98,0.00,,,0.02,0.00,VWS V14.01,2013-05-10 08:08:00,
2013-05-10 04:13:00,57.1,56.5,29.92,SSW,209,8.0,8.0,98,0.00,,,0.02,0.00,VWS V14.01,2013-05-10 08:13:00,
2013-05-10 04:15:00,56.3,55.7,29.91,SW,223,7.0,12.0,98,0.00,,,0.02,0.00,VWS V14.01,2013-05-10 08:15:00,
2013-05-10 04:18:00,57.0,56.4,29.92,SSW,204,9.0,9.0,98,0.00,,,0.02,0.00,VWS V14.01,2013-05-10 08:18:00,
2013-05-10 04:23:00,56.7,56.1,29.92,SSW,202,11.0,11.0,98,0.00,,,0.02,0.00,VWS V14.01,2013-05-10 08:23:00,
2013-05-10 04:28:00,56.5,55.9,29.93,SW,215,8.0,12.0,98,0.00,,,0.02,0.00,VWS V14.01,2013-05-10 08:28:00,
2013-05-10 04:30:00,56.7,56.1,29.91,SW,234,7.0,8.0,98,0.00,,,0.02,0.00,VWS V14.01,2013-05-10 08:30:00,
2013-05-10 04:33:00,56.8,56.2,29.93,SW,230,10.0,11.0,98,0.00,,,0.02,0.00,VWS V14.01,2013-05-10 08:33:00,
2013-05-10 04:38:00,56.4,56.0,29.93,SW,225,14.0,-999.0,98,-99.99,,,0.01,0,weatherlink.com 1.10,2013-05-10 08:38:00,
2013-05-10 04:43:00,56.3,55.8,29.93,SW,225,13.0,15.0,98,0.00,,,0.02,0.00,VWS V14.01,2013-05-10 08:43:00,
2013-05-10 04:45:00,56.9,56.3,29.92,SW,227,7.0,9.0,98,0.00,,,0.02,0.00,VWS V14.01,2013-05-10 08:45:00,
2013-05-10 04:48:00,56.3,55.8,29.93,SW,227,10.0,13.0,98,0.00,,,0.02,0.00,VWS V14.01,2013-05-10 08:48:00,
2013-05-10 04:53:00,56.0,55.5,29.93,SW,230,13.0,16.0,98,0.00,,,0.02,0.00,VWS V14.01,2013-05-10 08:53:00,
2013-05-10 04:58:00,56.2,55.7,29.93,SW,229,12.0,16.0,98,0.00,,,0.02,0.00,VWS V14.01,2013-05-10 08:58:00,
2013-05-10 05:00:00,57.0,56.4,29.92,SW,233,5.0,9.0,98,0.00,,,0.02,0.00,VWS V14.01,2013-05-10 09:00:00,
2013-05-10 05:03:00,56.4,55.8,29.93,SW,225,11.0,11.0,98,0.00,,,0.02,0.00,VWS V14.01,2013-05-10 09:03:00,
2013-05-10 05:08:00,56.6,56.0,29.94,SW,227,8.0,12.0,98,0.00,,,0.02,0.00,VWS V14.01,2013-05-10 09:08:00,
2013-05-10 05:13:00,56.8,56.2,29.94,SW,223,8.0,12.0,98,0.00,,,0.02,0.00,VWS V14.01,2013-05-10 09:13:00,
2013-05-10 05:15:00,57.1,56.5,29.92,SSW,209,7.0,8.0,98,0.00,,,0.02,0.00,VWS V14.01,2013-05-10 09:15:00,
2013-05-10 05:18:00,56.7,56.1,29.94,SW,227,12.0,13.0,98,0.00,,,0.02,0.00,VWS V14.01,2013-05-10 09:18:00,
2013-05-10 05:23:00,56.8,56.2,29.94,SW,234,9.0,13.0,98,0.00,,,0.02,0.00,VWS V14.01,2013-05-10 09:23:00,
2013-05-10 05:28:00,56.8,56.2,29.94,SW,226,8.0,13.0,98,0.00,,,0.02,0.00,VWS V14.01,2013-05-10 09:28:00,
2013-05-10 05:30:00,56.7,56.1,29.92,SW,230,11.0,12.0,98,0.00,,,0.02,0.00,VWS V14.01,2013-05-10 09:30:00,
2013-05-10 05:33:00,56.8,56.2,29.94,SW,230,10.0,11.0,98,0.00,,,0.02,0.00,VWS V14.01,2013-05-10 09:33:00,
2013-05-10 05:38:00,56.8,56.2,29.94,SW,235,7.0,11.0,98,0.00,,,0.02,5.00,VWS V14.01,2013-05-10 09:38:00,
2013-05-10 05:43:00,56.8,56.2,29.95,WSW,238,5.0,11.0,98,0.00,,,0.02,9.00,VWS V14.01,2013-05-10 09:43:00,
2013-05-10 05:45:00,56.3,55.7,29.93,SW,221,11.0,15.0,98,0.00,,,0.02,0.00,VWS V14.01,2013-05-10 09:45:00,
2013-05-10 05:48:00,56.8,56.2,29.95,SW,235,6.0,6.0,98,0.00,,,0.02,11.00,VWS V14.01,2013-05-10 09:48:00,
2013-05-10 05:53:00,56.8,56.2,29.95,SW,223,5.0,7.0,98,0.00,,,0.02,12.00,VWS V14.01,2013-05-10 09:53:00,
2013-05-10 05:58:00,56.7,56.1,29.95,SW,229,6.0,7.0,98,0.00,,,0.02,16.00,VWS V14.01,2013-05-10 09:58:00,
2013-05-10 06:00:00,56.3,55.7,29.93,SW,229,10.0,16.0,98,0.00,,,0.02,0.00,VWS V14.01,2013-05-10 10:00:00,
2013-05-10 06:03:00,56.7,56.1,29.96,SW,234,7.0,8.0,98,0.00,,,0.02,16.00,VWS V14.01,2013-05-10 10:03:00,
2013-05-10 06:08:00,56.6,56.0,29.96,SSW,207,6.0,8.0,98,0.00,,,0.02,16.00,VWS V14.01,2013-05-10 10:08:00,
2013-05-10 06:13:00,56.5,55.9,29.95,SW,219,4.0,8.0,98,0.00,,,0.02,32.00,VWS V14.01,2013-05-10 10:13:00,
2013-05-10 06:15:00,56.7,56.1,29.94,SW,226,11.0,12.0,98,0.00,,,0.02,0.00,VWS V14.01,2013-05-10 10:15:00,
2013-05-10 06:18:00,56.5,55.9,29.95,SSW,210,6.0,6.0,98,0.00,,,0.02,60.00,VWS V14.01,2013-05-10 10:18:00,
2013-05-10 06:23:00,56.5,55.9,29.95,SW,219,4.0,6.0,98,0.00,,,0.02,54.00,VWS V14.01,2013-05-10 10:23:00,
2013-05-10 06:28:00,56.5,55.9,29.95,SW,221,4.0,6.0,98,0.00,,,0.02,74.00,VWS V14.01,2013-05-10 10:28:00,
2013-05-10 06:30:00,56.7,56.1,29.94,SW,223,9.0,13.0,98,0.00,,,0.02,0.00,VWS V14.01,2013-05-10 10:30:00,
2013-05-10 06:33:00,56.5,55.9,29.95,SW,234,5.0,5.0,98,0.00,,,0.02,79.00,VWS V14.01,2013-05-10 10:33:00,
2013-05-10 06:38:00,56.5,55.9,29.95,SW,229,5.0,6.0,98,0.00,,,0.02,79.00,VWS V14.01,2013-05-10 10:38:00,
2013-05-10 06:43:00,56.4,55.8,29.95,SW,223,6.0,6.0,98,0.00,,,0.02,63.00,VWS V14.01,2013-05-10 10:43:00,
2013-05-10 06:45:00,56.8,56.2,29.95,SW,234,5.0,11.0,98,0.00,,,0.02,12.00,VWS V14.01,2013-05-10 10:45:00,
2013-05-10 06:48:00,56.2,55.7,29.95,SSW,205,6.0,6.0,98,0.00,,,0.02,63.00,VWS V14.01,2013-05-10 10:48:00,
2013-05-10 06:53:00,56.0,55.5,29.96,SW,234,4.0,6.0,98,0.00,,,0.02,98.00,VWS V14.01,2013-05-10 10:53:00,
2013-05-10 06:58:00,55.8,55.2,29.96,SW,220,4.0,7.0,98,0.00,,,0.02,76.00,VWS V14.01,2013-05-10 10:58:00,
2013-05-10 07:00:00,56.7,56.1,29.95,WSW,244,7.0,7.0,98,0.00,,,0.02,19.00,VWS V14.01,2013-05-10 11:00:00,
2013-05-10 07:03:00,55.8,55.2,29.96,SW,214,7.0,8.0,98,0.00,,,0.02,83.00,VWS V14.01,2013-05-10 11:03:00,
2013-05-10 07:08:00,55.7,55.2,29.96,WSW,246,5.0,8.0,98,0.00,,,0.02,88.00,VWS V14.01,2013-05-10 11:08:00,
2013-05-10 07:13:00,55.6,55.0,29.96,SW,229,6.0,8.0,98,0.00,,,0.02,102.00,VWS V14.01,2013-05-10 11:13:00,
2013-05-10 07:15:00,56.5,55.9,29.95,SW,222,3.0,8.0,98,0.00,,,0.02,47.00,VWS V14.01,2013-05-10 11:15:00,
2013-05-10 07:18:00,55.4,54.8,29.96,WSW,238,4.0,6.0,98,0.00,,,0.02,123.00,VWS V14.01,2013-05-10 11:18:00,
2013-05-10 07:23:00,55.4,54.8,29.96,SW,220,5.0,7.0,98,0.00,,,0.02,111.00,VWS V14.01,2013-05-10 11:23:00,
2013-05-10 07:28:00,55.3,54.8,29.97,SW,232,6.0,7.0,98,0.00,,,0.02,118.00,VWS V14.01,2013-05-10 11:28:00,
2013-05-10 07:30:00,56.5,55.9,29.95,WSW,239,5.0,6.0,98,0.00,,,0.02,79.00,VWS V14.01,2013-05-10 11:30:00,
2013-05-10 07:33:00,55.3,54.8,29.97,SW,221,6.0,6.0,98,0.00,,,0.02,128.00,VWS V14.01,2013-05-10 11:33:00,
2013-05-10 07:38:00,55.4,54.8,29.97,SSW,212,6.0,7.0,98,0.00,,,0.02,148.00,VWS V14.01,2013-05-10 11:38:00,
2013-05-10 07:43:00,55.3,54.8,29.96,SSW,209,7.0,8.0,98,0.00,,,0.02,167.00,VWS V14.01,2013-05-10 11:43:00,
2013-05-10 07:45:00,56.3,55.7,29.95,SSW,213,6.0,7.0,98,0.00,,,0.02,63.00,VWS V14.01,2013-05-10 11:45:00,
2013-05-10 07:48:00,55.2,54.7,29.96,SSW,204,6.0,9.0,98,0.00,,,0.02,148.00,VWS V14.01,2013-05-10 11:48:00,
2013-05-10 07:53:00,55.0,54.5,29.97,SSW,213,8.0,9.0,98,0.00,,,0.02,167.00,VWS V14.01,2013-05-10 11:53:00,
2013-05-10 07:58:00,54.9,54.3,29.97,SW,225,7.0,10.0,98,0.00,,,0.02,195.00,VWS V14.01,2013-05-10 11:58:00,
2013-05-10 08:00:00,55.8,55.2,29.96,SW,221,6.0,7.0,98,0.00,,,0.02,77.00,VWS V14.01,2013-05-10 12:00:00,
2013-05-10 08:03:00,54.9,54.3,29.97,SW,223,12.0,13.0,98,0.00,,,0.02,190.00,VWS V14.01,2013-05-10 12:03:00,
2013-05-10 08:08:00,54.8,54.2,29.97,SSW,205,12.0,14.0,98,0.00,,,0.02,183.00,VWS V14.01,2013-05-10 12:08:00,
2013-05-10 08:13:00,54.6,54.0,29.97,SSW,211,10.0,14.0,98,0.00,,,0.02,186.00,VWS V14.01,2013-05-10 12:13:00,
2013-05-10 08:15:00,55.5,55.0,29.96,WSW,238,5.0,8.0,98,0.00,,,0.02,88.00,VWS V14.01,2013-05-10 12:15:00,
2013-05-10 08:18:00,54.5,54.0,29.97,SSW,199,10.0,10.0,98,0.00,,,0.02,237.00,VWS V14.01,2013-05-10 12:18:00,
2013-05-10 08:23:00,54.4,53.8,29.97,SSW,199,9.0,11.0,98,0.00,,,0.02,246.00,VWS V14.01,2013-05-10 12:23:00,
2013-05-10 08:28:00,54.4,53.8,29.98,SSW,209,11.0,12.0,98,0.00,,,0.02,287.00,VWS V14.01,2013-05-10 12:28:00,
2013-05-10 08:30:00,55.4,54.8,29.97,SSW,210,6.0,7.0,98,0.00,,,0.02,114.00,VWS V14.01,2013-05-10 12:30:00,
2013-05-10 08:33:00,54.5,54.0,29.98,SW,227,10.0,12.0,98,0.00,,,0.02,262.00,VWS V14.01,2013-05-10 12:33:00,
2013-05-10 08:38:00,54.4,53.8,29.97,SW,214,9.0,12.0,98,0.00,,,0.02,274.00,VWS V14.01,2013-05-10 12:38:00,
2013-05-10 08:43:00,54.6,54.0,29.98,SW,221,8.0,12.0,98,0.00,,,0.02,294.00,VWS V14.01,2013-05-10 12:43:00,
2013-05-10 08:45:00,55.2,54.7,29.97,SSW,213,9.0,9.0,98,0.00,,,0.02,155.00,VWS V14.01,2013-05-10 12:45:00,
2013-05-10 08:48:00,54.7,54.2,29.97,SSW,213,6.0,8.0,98,0.00,,,0.02,308.00,VWS V14.01,2013-05-10 12:48:00,
2013-05-10 08:53:00,54.8,54.2,29.98,SSW,200,8.0,9.0,98,0.00,,,0.02,346.00,VWS V14.01,2013-05-10 12:53:00,
2013-05-10 08:59:00,55.0,54.5,29.97,SSW,192,8.0,9.0,98,0.00,,,0.02,378.00,VWS V14.01,2013-05-10 12:59:00,
2013-05-10 09:00:00,54.9,54.3,29.97,SW,217,10.0,12.0,98,0.00,,,0.02,186.00,VWS V14.01,2013-05-10 13:00:00,
2013-05-10 09:04:00,55.0,54.5,29.97,SSW,193,8.0,9.0,98,0.00,,,0.02,413.00,VWS V14.01,2013-05-10 13:04:00,
2013-05-10 09:09:00,55.0,54.5,29.97,South,188,8.0,9.0,98,0.00,,,0.02,427.00,VWS V14.01,2013-05-10 13:09:00,
2013-05-10 09:14:00,55.0,54.5,29.97,South,180,7.0,9.0,98,0.00,,,0.02,411.00,VWS V14.01,2013-05-10 13:14:00,
2013-05-10 09:15:00,54.6,54.0,29.97,SW,214,9.0,14.0,98,0.00,,,0.02,200.00,VWS V14.01,2013-05-10 13:15:00,
2013-05-10 09:19:00,54.9,54.3,29.97,South,181,7.0,9.0,98,0.00,,,0.02,490.00,VWS V14.01,2013-05-10 13:19:00,
2013-05-10 09:24:00,54.9,54.3,29.97,South,174,8.0,9.0,98,0.00,,,0.02,406.00,VWS V14.01,2013-05-10 13:24:00,
2013-05-10 09:29:00,55.0,54.5,29.97,South,173,8.0,9.0,98,0.00,,,0.02,524.00,VWS V14.01,2013-05-10 13:29:00,
2013-05-10 09:30:00,54.5,54.0,29.98,SW,225,12.0,13.0,98,0.00,,,0.02,285.00,VWS V14.01,2013-05-10 13:30:00,
2013-05-10 09:34:00,54.8,54.2,29.97,South,178,8.0,10.0,98,0.00,,,0.02,582.00,VWS V14.01,2013-05-10 13:34:00,
2013-05-10 09:39:00,54.7,54.2,29.97,South,170,7.0,10.0,98,0.00,,,0.02,610.00,VWS V14.01,2013-05-10 13:39:00,
2013-05-10 09:44:00,54.8,54.2,29.97,SSE,155,7.0,10.0,98,0.00,,,0.02,568.00,VWS V14.01,2013-05-10 13:44:00,
2013-05-10 09:45:00,54.7,54.2,29.98,SSW,204,6.0,12.0,98,0.00,,,0.02,320.00,VWS V14.01,2013-05-10 13:45:00,
2013-05-10 09:49:00,55.3,54.8,29.98,SSE,165,9.0,10.0,98,0.00,,,0.02,577.00,VWS V14.01,2013-05-10 13:49:00,
2013-05-10 09:54:00,55.1,54.5,29.98,South,172,10.0,10.0,98,0.00,,,0.02,577.00,VWS V14.01,2013-05-10 13:54:00,
2013-05-10 09:59:00,54.7,54.2,29.98,South,174,11.0,12.0,98,0.00,,,0.02,568.00,VWS V14.01,2013-05-10 13:59:00,
2013-05-10 10:00:00,55.0,54.5,29.97,South,190,8.0,10.0,98,0.00,,,0.02,390.00,VWS V14.01,2013-05-10 14:00:00,
2013-05-10 10:04:00,54.5,54.0,29.98,South,186,10.0,12.0,98,0.00,,,0.02,577.00,VWS V14.01,2013-05-10 14:04:00,
2013-05-10 10:09:00,54.6,54.0,29.98,South,180,8.0,12.0,98,0.00,,,0.02,610.00,VWS V14.01,2013-05-10 14:09:00,
2013-05-10 10:14:00,54.5,54.0,29.97,South,182,9.0,12.0,98,0.00,,,0.02,643.00,VWS V14.01,2013-05-10 14:14:00,
2013-05-10 10:15:00,54.9,54.3,29.97,South,182,8.0,9.0,98,0.00,,,0.02,434.00,VWS V14.01,2013-05-10 14:15:00,
2013-05-10 10:19:00,54.2,53.7,29.98,South,180,11.0,11.0,98,0.00,,,0.02,721.00,VWS V14.01,2013-05-10 14:19:00,
2013-05-10 10:24:00,54.1,53.5,29.97,South,188,11.0,12.0,98,0.00,,,0.02,722.00,VWS V14.01,2013-05-10 14:24:00,
2013-05-10 10:29:00,54.3,53.8,29.97,SSE,168,8.0,12.0,98,0.00,,,0.02,784.00,VWS V14.01,2013-05-10 14:29:00,
2013-05-10 10:30:00,54.9,54.3,29.97,SSE,167,8.0,9.0,98,0.00,,,0.02,531.00,VWS V14.01,2013-05-10 14:30:00,
2013-05-10 10:34:00,54.5,54.0,29.97,SSE,158,8.0,9.0,98,0.00,,,0.02,694.00,VWS V14.01,2013-05-10 14:34:00,
2013-05-10 10:39:00,54.8,54.2,29.97,SSE,163,9.0,10.0,98,0.00,,,0.02,677.00,VWS V14.01,2013-05-10 14:39:00,
2013-05-10 10:44:00,54.7,54.2,29.98,South,178,10.0,12.0,98,0.00,,,0.02,673.00,VWS V14.01,2013-05-10 14:44:00,
2013-05-10 10:45:00,55.1,54.5,29.97,SSE,161,8.0,10.0,98,0.00,,,0.02,635.00,VWS V14.01,2013-05-10 14:45:00,
2013-05-10 10:49:00,54.6,54.0,29.98,South,182,8.0,13.0,98,0.00,,,0.02,872.00,VWS V14.01,2013-05-10 14:49:00,
2013-05-10 10:54:00,54.9,54.3,29.98,South,184,11.0,13.0,98,0.00,,,0.02,884.00,VWS V14.01,2013-05-10 14:54:00,
2013-05-10 10:59:00,55.1,54.5,29.98,South,185,10.0,13.0,98,0.00,,,0.02,940.00,VWS V14.01,2013-05-10 14:59:00,
2013-05-10 11:00:00,54.5,53.7,29.98,SSE,165,9.0,12.0,97,0.00,,,0.02,628.00,VWS V14.01,2013-05-10 15:00:00,
2013-05-10 11:04:00,55.3,54.8,29.98,SSW,193,12.0,12.0,98,0.00,,,0.02,777.00,VWS V14.01,2013-05-10 15:04:00,
2013-05-10 11:09:00,55.5,55.0,29.98,South,173,10.0,12.0,98,0.00,,,0.02,904.00,VWS V14.01,2013-05-10 15:09:00,
2013-05-10 11:14:00,55.8,55.2,29.98,SSE,167,9.0,12.0,98,0.00,,,0.02,911.00,VWS V14.01,2013-05-10 15:14:00,
2013-05-10 11:15:00,54.4,53.6,29.97,South,183,8.0,12.0,97,0.00,,,0.02,561.00,VWS V14.01,2013-05-10 15:15:00,
2013-05-10 11:19:00,56.2,55.7,29.97,SSE,167,9.0,10.0,98,0.00,,,0.02,919.00,VWS V14.01,2013-05-10 15:19:00,
2013-05-10 11:24:00,56.3,55.5,29.97,South,184,9.0,11.0,97,0.00,,,0.02,923.00,VWS V14.01,2013-05-10 15:24:00,
2013-05-10 11:29:00,56.5,55.7,29.97,South,186,10.0,11.0,97,0.00,,,0.02,928.00,VWS V14.01,2013-05-10 15:29:00,
2013-05-10 11:30:00,54.4,53.8,29.97,South,178,8.0,12.0,98,0.00,,,0.02,763.00,VWS V14.01,2013-05-10 15:30:00,
2013-05-10 11:34:00,56.6,55.8,29.97,South,177,12.0,12.0,97,0.00,,,0.02,935.00,VWS V14.01,2013-05-10 15:34:00,
2013-05-10 11:39:00,56.7,55.6,29.97,South,184,11.0,14.0,96,0.00,,,0.02,940.00,VWS V14.01,2013-05-10 15:39:00,
2013-05-10 11:44:00,56.9,55.8,29.98,South,185,14.0,17.0,96,0.00,,,0.02,944.00,VWS V14.01,2013-05-10 15:44:00,
2013-05-10 11:49:00,56.9,55.5,29.97,South,186,13.0,13.0,95,0.00,,,0.02,951.00,VWS V14.01,2013-05-10 15:49:00,
2013-05-10 11:54:00,57.1,55.7,29.97,South,181,14.0,15.0,95,0.00,,,0.02,868.00,VWS V14.01,2013-05-10 15:54:00,
2013-05-10 11:59:00,57.2,55.8,29.97,South,178,16.0,16.0,95,0.00,,,0.02,719.00,VWS V14.01,2013-05-10 15:59:00,
2013-05-10 12:00:00,55.3,54.8,29.98,South,189,12.0,13.0,98,0.00,,,0.02,870.00,VWS V14.01,2013-05-10 16:00:00,
2013-05-10 12:04:00,57.0,55.3,29.97,South,178,16.0,17.0,94,0.00,,,0.02,524.00,VWS V14.01,2013-05-10 16:04:00,
2013-05-10 12:09:00,57.1,55.4,29.97,SSW,194,15.0,18.0,94,0.00,,,0.02,926.00,VWS V14.01,2013-05-10 16:09:00,
2013-05-10 12:14:00,57.1,55.4,29.97,South,188,16.0,18.0,94,0.00,,,0.02,893.00,VWS V14.01,2013-05-10 16:14:00,
2013-05-10 12:15:00,55.9,55.3,29.97,South,171,9.0,12.0,98,0.00,,,0.02,914.00,VWS V14.01,2013-05-10 16:15:00,
2013-05-10 12:19:00,57.2,55.5,29.97,SSW,192,13.0,17.0,94,0.00,,,0.02,923.00,VWS V14.01,2013-05-10 16:19:00,
2013-05-10 12:24:00,57.3,55.3,29.97,SSW,197,17.0,19.0,93,0.00,,,0.02,958.00,VWS V14.01,2013-05-10 16:24:00,
2013-05-10 12:29:00,57.4,55.4,29.97,SSW,197,16.0,19.0,93,0.00,,,0.02,981.00,VWS V14.01,2013-05-10 16:29:00,
2013-05-10 12:30:00,56.5,55.7,29.97,South,184,12.0,12.0,97,0.00,,,0.02,930.00,VWS V14.01,2013-05-10 16:30:00,
2013-05-10 12:34:00,57.6,55.6,29.97,South,191,15.0,17.0,93,0.00,,,0.02,981.00,VWS V14.01,2013-05-10 16:34:00,
2013-05-10 12:39:00,57.7,55.7,29.96,South,180,12.0,17.0,93,0.00,,,0.02,976.00,VWS V14.01,2013-05-10 16:39:00,
2013-05-10 12:44:00,57.8,55.8,29.96,South,184,10.0,17.0,93,0.00,,,0.02,926.00,VWS V14.01,2013-05-10 16:44:00,
2013-05-10 12:45:00,56.9,55.5,29.98,South,183,12.0,17.0,95,0.00,,,0.02,946.00,VWS V14.01,2013-05-10 16:45:00,
2013-05-10 12:49:00,58.0,56.0,29.96,South,184,9.0,11.0,93,0.00,,,0.02,988.00,VWS V14.01,2013-05-10 16:49:00,
2013-05-10 12:54:00,58.3,56.0,29.96,SSW,193,11.0,12.0,92,0.00,,,0.02,972.00,VWS V14.01,2013-05-10 16:54:00,
2013-05-10 12:59:00,58.7,56.1,29.96,SSW,194,12.0,14.0,91,0.00,,,0.02,962.00,VWS V14.01,2013-05-10 16:59:00,
2013-05-10 13:00:00,57.1,55.4,29.97,South,184,16.0,16.0,94,0.00,,,0.02,445.00,VWS V14.01,2013-05-10 17:00:00,
2013-05-10 13:04:00,58.8,56.2,29.96,SSW,196,15.0,16.0,91,0.00,,,0.02,958.00,VWS V14.01,2013-05-10 17:04:00,
2013-05-10 13:09:00,58.8,55.9,29.95,SSW,199,18.0,18.0,90,0.00,,,0.02,951.00,VWS V14.01,2013-05-10 17:09:00,
2013-05-10 13:14:00,58.6,56.0,29.95,SSW,198,17.0,19.0,91,0.00,,,0.02,951.00,VWS V14.01,2013-05-10 17:14:00,
2013-05-10 13:15:00,57.2,55.5,29.97,South,188,17.0,18.0,94,0.00,,,0.02,905.00,VWS V14.01,2013-05-10 17:15:00,
2013-05-10 13:19:00,58.5,55.9,29.95,SSW,202,19.0,19.0,91,0.00,,,0.02,946.00,VWS V14.01,2013-05-10 17:19:00,
2013-05-10 13:24:00,58.6,56.0,29.95,SSW,200,17.0,19.0,91,0.00,,,0.02,944.00,VWS V14.01,2013-05-10 17:24:00,
2013-05-10 13:29:00,58.6,56.0,29.96,SSW,199,16.0,19.0,91,0.00,,,0.02,939.00,VWS V14.01,2013-05-10 17:29:00,
2013-05-10 13:30:00,57.5,55.5,29.97,SSW,192,16.0,19.0,93,0.00,,,0.02,988.00,VWS V14.01,2013-05-10 17:30:00,
2013-05-10 13:34:00,58.7,56.1,29.96,SSW,201,17.0,18.0,91,0.00,,,0.02,944.00,VWS V14.01,2013-05-10 17:34:00,
2013-05-10 13:39:00,58.7,56.1,29.96,SSW,198,15.0,19.0,91,0.00,,,0.02,946.00,VWS V14.01,2013-05-10 17:39:00,
2013-05-10 13:44:00,59.0,56.1,29.96,SSW,192,14.0,19.0,90,0.00,,,0.02,935.00,VWS V14.01,2013-05-10 17:44:00,
2013-05-10 13:45:00,57.8,55.8,29.96,South,178,11.0,17.0,93,0.00,,,0.02,947.00,VWS V14.01,2013-05-10 17:45:00,
2013-05-10 13:49:00,59.1,56.2,29.96,South,190,14.0,16.0,90,0.00,,,0.02,759.00,VWS V14.01,2013-05-10 17:49:00,
2013-05-10 13:54:00,59.1,55.9,29.95,South,186,15.0,16.0,89,0.00,,,0.02,788.00,VWS V14.01,2013-05-10 17:54:00,
2013-05-10 13:59:00,59.1,55.9,29.95,SSW,198,14.0,16.0,89,0.00,,,0.02,684.00,VWS V14.01,2013-05-10 17:59:00,
2013-05-10 14:00:00,58.7,56.1,29.96,SSW,194,13.0,14.0,91,0.00,,,0.02,960.00,VWS V14.01,2013-05-10 18:00:00,
2013-05-10 14:05:00,59.3,56.4,29.95,South,188,14.0,15.0,90,0.00,,,0.02,954.00,VWS V14.01,2013-05-10 18:05:00,
2013-05-10 14:10:00,59.5,56.3,29.95,South,188,13.0,15.0,89,0.00,,,0.02,912.00,VWS V14.01,2013-05-10 18:10:00,
2013-05-10 14:15:00,59.7,57.0,29.95,South,185,12.0,-999.0,89,-99.99,,,0.01,888,weatherlink.com 1.10,2013-05-10 18:15:00,
2013-05-10 14:20:00,59.6,56.4,29.95,South,186,8.0,11.0,89,0.00,,,0.02,902.00,VWS V14.01,2013-05-10 18:20:00,
2013-05-10 14:25:00,59.5,56.3,29.95,South,188,13.0,14.0,89,0.00,,,0.02,838.00,VWS V14.01,2013-05-10 18:25:00,
2013-05-10 14:30:00,59.7,56.5,29.95,South,172,9.0,15.0,89,0.00,,,0.02,884.00,VWS V14.01,2013-05-10 18:30:00,
2013-05-10 14:35:00,59.9,56.7,29.95,South,189,14.0,14.0,89,0.00,,,0.02,889.00,VWS V14.01,2013-05-10 18:35:00,
2013-05-10 14:40:00,60.2,56.6,29.96,South,191,15.0,17.0,88,0.00,,,0.02,759.00,VWS V14.01,2013-05-10 18:40:00,
2013-05-10 14:45:00,60.1,56.5,29.96,SSW,195,18.0,19.0,88,0.00,,,0.02,793.00,VWS V14.01,2013-05-10 18:45:00,
2013-05-10 14:50:00,59.8,56.2,29.96,South,186,18.0,18.0,88,0.00,,,0.02,649.00,VWS V14.01,2013-05-10 18:50:00,
2013-05-10 14:55:00,59.6,56.4,29.96,South,191,16.0,20.0,89,0.00,,,0.02,705.00,VWS V14.01,2013-05-10 18:55:00,
2013-05-10 15:00:00,59.2,56.0,29.96,SSW,193,14.0,20.0,89,0.00,,,0.02,378.00,VWS V14.01,2013-05-10 19:00:00,
2013-05-10 15:05:00,59.0,55.8,29.95,SSW,196,22.0,22.0,89,0.00,,,0.02,842.00,VWS V14.01,2013-05-10 19:05:00,
2013-05-10 15:10:00,58.6,55.4,29.95,SSW,196,18.0,23.0,89,0.00,,,0.02,508.00,VWS V14.01,2013-05-10 19:10:00,
2013-05-10 15:15:00,58.6,55.7,29.96,SSW,194,18.0,23.0,90,0.00,,,0.02,724.00,VWS V14.01,2013-05-10 19:15:00,
2013-05-10 15:20:00,58.6,56.0,29.96,SSW,196,15.0,19.0,91,0.00,,,0.02,772.00,VWS V14.01,2013-05-10 19:20:00,
2013-05-10 15:25:00,58.4,55.8,29.95,SW,217,15.0,19.0,91,0.00,,,0.02,722.00,VWS V14.01,2013-05-10 19:25:00,
2013-05-10 15:30:00,58.6,56.0,29.95,SSW,211,16.0,20.0,91,0.00,,,0.02,814.00,VWS V14.01,2013-05-10 19:30:00,
2013-05-10 15:35:00,58.5,55.9,29.95,SSW,203,17.0,19.0,91,0.00,,,0.02,788.00,VWS V14.01,2013-05-10 19:35:00,
2013-05-10 15:40:00,58.7,56.1,29.96,SSW,206,15.0,19.0,91,0.00,,,0.02,605.00,VWS V14.01,2013-05-10 19:40:00,
2013-05-10 15:45:00,58.7,55.8,29.95,SSW,205,16.0,20.0,90,0.00,,,0.02,441.00,VWS V14.01,2013-05-10 19:45:00,
2013-05-10 15:50:00,58.6,55.4,29.95,SSW,200,18.0,19.0,89,0.00,,,0.02,619.00,VWS V14.01,2013-05-10 19:50:00,
2013-05-10 15:55:00,58.7,55.5,29.96,SSW,199,18.0,20.0,89,0.00,,,0.02,520.00,VWS V14.01,2013-05-10 19:55:00,
2013-05-10 16:00:00,58.3,55.1,29.96,SSW,198,15.0,20.0,89,0.00,,,0.02,348.00,VWS V14.01,2013-05-10 20:00:00,
2013-05-10 16:05:00,58.3,55.1,29.96,South,191,15.0,17.0,89,0.00,,,0.02,359.00,VWS V14.01,2013-05-10 20:05:00,
2013-05-10 16:10:00,58.5,55.3,29.97,SSW,202,13.0,17.0,89,0.00,,,0.02,457.00,VWS V14.01,2013-05-10 20:10:00,
2013-05-10 16:15:00,58.6,55.4,29.96,SSW,200,13.0,17.0,89,0.00,,,0.02,392.00,VWS V14.01,2013-05-10 20:15:00,
2013-05-10 16:20:00,58.5,55.0,29.96,South,190,13.0,16.0,88,0.00,,,0.02,253.00,VWS V14.01,2013-05-10 20:20:00,
2013-05-10 16:25:00,58.6,55.1,29.96,South,184,13.0,16.0,88,0.00,,,0.02,459.00,VWS V14.01,2013-05-10 20:25:00,
2013-05-10 16:30:00,58.6,55.1,29.96,South,190,15.0,16.0,88,0.00,,,0.02,346.00,VWS V14.01,2013-05-10 20:30:00,
2013-05-10 16:35:00,58.5,55.0,29.97,South,185,13.0,16.0,88,0.00,,,0.02,360.00,VWS V14.01,2013-05-10 20:35:00,
2013-05-10 16:40:00,58.5,55.0,29.96,South,182,11.0,16.0,88,0.00,,,0.02,355.00,VWS V14.01,2013-05-10 20:40:00,
2013-05-10 16:45:00,58.7,55.2,29.96,South,185,13.0,16.0,88,0.00,,,0.02,603.00,VWS V14.01,2013-05-10 20:45:00,
2013-05-10 16:50:00,58.9,55.4,29.96,South,183,14.0,15.0,88,0.00,,,0.02,538.00,VWS V14.01,2013-05-10 20:50:00,
2013-05-10 16:55:00,58.9,55.0,29.96,South,188,12.0,15.0,87,0.00,,,0.02,455.00,VWS V14.01,2013-05-10 20:55:00,
2013-05-10 17:00:00,58.9,55.0,29.96,SSW,198,15.0,16.0,87,0.00,,,0.02,376.00,VWS V14.01,2013-05-10 21:00:00,
2013-05-10 17:05:00,58.6,55.1,29.96,SSW,201,15.0,16.0,88,0.00,,,0.02,369.00,VWS V14.01,2013-05-10 21:05:00,
2013-05-10 17:10:00,58.5,55.3,29.95,SW,214,15.0,18.0,89,0.00,,,0.02,330.00,VWS V14.01,2013-05-10 21:10:00,
2013-05-10 17:15:00,58.5,55.3,29.95,SSW,212,16.0,18.0,89,0.00,,,0.02,341.00,VWS V14.01,2013-05-10 21:15:00,
2013-05-10 17:20:00,58.4,55.2,29.95,SSW,213,17.0,20.0,89,0.00,,,0.02,327.00,VWS V14.01,2013-05-10 21:20:00,
2013-05-10 17:25:00,58.2,55.0,29.96,SSW,209,17.0,21.0,89,0.00,,,0.02,132.00,VWS V14.01,2013-05-10 21:25:00,
2013-05-10 17:30:00,58.1,54.9,29.95,SSW,209,17.0,21.0,89,0.00,,,0.02,107.00,VWS V14.01,2013-05-10 21:30:00,
2013-05-10 17:35:00,58.0,55.1,29.95,SSW,212,15.0,18.0,90,0.00,,,0.02,116.00,VWS V14.01,2013-05-10 21:35:00,
2013-05-10 17:40:00,58.0,55.1,29.95,SSW,213,14.0,18.0,90,0.00,,,0.02,148.00,VWS V14.01,2013-05-10 21:40:00,
2013-05-10 17:45:00,58.0,54.8,29.96,SSW,213,17.0,18.0,89,0.00,,,0.02,171.00,VWS V14.01,2013-05-10 21:45:00,
2013-05-10 17:50:00,58.2,55.3,29.95,SSW,213,15.0,17.0,90,0.00,,,0.02,167.00,VWS V14.01,2013-05-10 21:50:00,
2013-05-10 17:55:00,58.3,55.1,29.95,SSW,213,15.0,19.0,89,0.00,,,0.02,141.00,VWS V14.01,2013-05-10 21:55:00,
2013-05-10 17:58:00,58.3,55.1,29.95,SSW,213,16.0,19.0,89,0.00,,,0.02,130.00,VWS V14.01,2013-05-10 21:58:00,
2013-05-10 17:59:00,58.3,55.1,29.95,SSW,211,16.0,19.0,89,0.00,,,0.02,128.00,VWS V14.01,2013-05-10 21:59:00,
2013-05-10 18:00:00,58.9,55.0,29.96,SSW,200,15.0,17.0,87,0.00,,,0.02,371.00,VWS V14.01,2013-05-10 22:00:00,
2013-05-10 18:04:00,58.1,54.9,29.95,SSW,211,15.0,17.0,89,0.00,,,0.02,111.00,VWS V14.01,2013-05-10 22:04:00,
2013-05-10 18:09:00,58.1,54.9,29.95,SSW,197,16.0,18.0,89,0.00,,,0.02,98.00,VWS V14.01,2013-05-10 22:09:00,
2013-05-10 18:14:00,58.0,54.8,29.95,SSW,200,18.0,19.0,89,0.00,,,0.02,86.00,VWS V14.01,2013-05-10 22:14:00,
2013-05-10 18:15:00,58.5,55.3,29.95,SSW,205,18.0,19.0,89,0.00,,,0.02,341.00,VWS V14.01,2013-05-10 22:15:00,
2013-05-10 18:19:00,58.1,55.2,29.95,SSW,213,16.0,19.0,90,0.00,,,0.02,84.00,VWS V14.01,2013-05-10 22:19:00,
2013-05-10 18:24:00,58.1,55.2,29.95,SW,216,15.0,19.0,90,0.00,,,0.02,83.00,VWS V14.01,2013-05-10 22:24:00,
2013-05-10 18:29:00,58.0,55.1,29.95,SW,224,17.0,19.0,90,0.00,,,0.02,88.00,VWS V14.01,2013-05-10 22:29:00,
2013-05-10 18:30:00,58.0,54.8,29.95,SSW,207,16.0,21.0,89,0.00,,,0.02,107.00,VWS V14.01,2013-05-10 22:30:00,
2013-05-10 18:34:00,57.8,54.9,29.95,SSW,213,16.0,19.0,90,0.00,,,0.02,90.00,VWS V14.01,2013-05-10 22:34:00,
2013-05-10 18:39:00,57.6,54.7,29.95,SSW,208,15.0,19.0,90,0.00,,,0.02,74.00,VWS V14.01,2013-05-10 22:39:00,
2013-05-10 18:44:00,57.4,54.8,29.95,SSW,212,16.0,19.0,91,0.00,,,0.02,60.00,VWS V14.01,2013-05-10 22:44:00,
2013-05-10 18:45:00,58.1,55.2,29.96,SSW,210,15.0,19.0,90,0.00,,,0.02,172.00,VWS V14.01,2013-05-10 22:45:00,
2013-05-10 18:49:00,57.2,54.6,29.95,SSW,213,14.0,17.0,91,0.00,,,0.02,53.00,VWS V14.01,2013-05-10 22:49:00,
2013-05-10 18:54:00,57.1,54.5,29.95,SSW,207,16.0,17.0,91,0.00,,,0.02,47.00,VWS V14.01,2013-05-10 22:54:00,
2013-05-10 18:59:00,56.9,54.3,29.95,SW,215,14.0,17.0,91,0.00,,,0.02,49.00,VWS V14.01,2013-05-10 22:59:00,
2013-05-10 19:00:00,58.2,55.0,29.95,SW,217,14.0,19.0,89,0.00,,,0.02,120.00,VWS V14.01,2013-05-10 23:00:00,
2013-05-10 19:04:00,56.8,54.5,29.96,SSW,211,12.0,14.0,92,0.00,,,0.02,51.00,VWS V14.01,2013-05-10 23:04:00,
2013-05-10 19:09:00,56.8,54.5,29.96,SW,221,10.0,14.0,92,0.00,,,0.02,44.00,VWS V14.01,2013-05-10 23:09:00,
2013-05-10 19:14:00,56.8,54.5,29.96,SW,219,10.0,14.0,92,0.00,,,0.02,37.00,VWS V14.01,2013-05-10 23:14:00,
2013-05-10 19:15:00,58.0,54.8,29.95,SSW,211,17.0,20.0,89,0.00,,,0.02,86.00,VWS V14.01,2013-05-10 23:15:00,
2013-05-10 19:19:00,56.9,54.6,29.96,SW,225,11.0,11.0,92,0.00,,,0.02,28.00,VWS V14.01,2013-05-10 23:19:00,
2013-05-10 19:24:00,57.1,54.8,29.97,SW,225,12.0,14.0,92,0.00,,,0.02,21.00,VWS V14.01,2013-05-10 23:24:00,
2013-05-10 19:29:00,57.1,54.8,29.97,SW,223,12.0,15.0,92,0.00,,,0.02,18.00,VWS V14.01,2013-05-10 23:29:00,
2013-05-10 19:30:00,58.0,55.1,29.95,SW,216,16.0,19.0,90,0.00,,,0.02,90.00,VWS V14.01,2013-05-10 23:30:00,
2013-05-10 19:34:00,57.2,54.9,29.97,SW,215,15.0,15.0,92,0.00,,,0.02,12.00,VWS V14.01,2013-05-10 23:34:00,
2013-05-10 19:39:00,57.2,55.2,29.97,SW,218,15.0,16.0,93,0.00,,,0.02,9.00,VWS V14.01,2013-05-10 23:39:00,
2013-05-10 19:44:00,57.2,55.2,29.97,SW,219,13.0,16.0,93,0.00,,,0.02,5.00,VWS V14.01,2013-05-10 23:44:00,
2013-05-10 19:45:00,57.3,54.7,29.95,SSW,208,12.0,19.0,91,0.00,,,0.02,56.00,VWS V14.01,2013-05-10 23:45:00,
2013-05-10 19:49:00,57.3,55.0,29.97,SW,219,13.0,15.0,92,0.00,,,0.02,0.00,VWS V14.01,2013-05-10 23:49:00,
2013-05-10 19:54:00,57.3,55.0,29.98,SW,219,14.0,16.0,92,0.00,,,0.02,0.00,VWS V14.01,2013-05-10 23:54:00,
2013-05-10 19:59:00,57.4,55.1,29.98,SSW,200,16.0,16.0,92,0.00,,,0.02,0.00,VWS V14.01,2013-05-10 23:59:00,
2013-05-10 20:00:00,56.9,54.6,29.95,SW,214,10.0,17.0,92,0.00,,,0.02,51.00,VWS V14.01,2013-05-11 00:00:00,
2013-05-10 20:04:00,57.4,55.1,29.98,SW,224,13.0,18.0,92,0.00,,,0.02,0.00,VWS V14.01,2013-05-11 00:04:00,
2013-05-10 20:09:00,57.3,55.0,29.98,SW,219,14.0,18.0,92,0.00,,,0.02,0.00,VWS V14.01,2013-05-11 00:09:00,
2013-05-10 20:14:00,57.3,55.0,29.97,SW,217,12.0,18.0,92,0.00,,,0.02,0.00,VWS V14.01,2013-05-11 00:14:00,
2013-05-10 20:15:00,56.9,54.6,29.96,SW,219,8.0,14.0,92,0.00,,,0.02,33.00,VWS V14.01,2013-05-11 00:15:00,
2013-05-10 20:19:00,57.3,55.0,29.98,SW,220,14.0,16.0,92,0.00,,,0.02,0.00,VWS V14.01,2013-05-11 00:19:00,
2013-05-10 20:24:00,57.2,55.2,29.98,SW,224,12.0,17.0,93,0.00,,,0.02,0.00,VWS V14.01,2013-05-11 00:24:00,
2013-05-10 20:29:00,57.2,55.2,29.98,SW,215,12.0,17.0,93,0.00,,,0.02,0.00,VWS V14.01,2013-05-11 00:29:00,
2013-05-10 20:30:00,57.2,54.9,29.97,SW,217,14.0,15.0,92,0.00,,,0.02,14.00,VWS V14.01,2013-05-11 00:30:00,
2013-05-10 20:34:00,57.1,55.1,29.98,SW,219,13.0,15.0,93,0.00,,,0.02,0.00,VWS V14.01,2013-05-11 00:34:00,
2013-05-10 20:39:00,57.1,55.1,29.98,SSW,205,15.0,15.0,93,0.00,,,0.02,0.00,VWS V14.01,2013-05-11 00:39:00,
2013-05-10 20:44:00,57.0,55.0,29.98,SSW,202,13.0,15.0,93,0.00,,,0.02,0.00,VWS V14.01,2013-05-11 00:44:00,
2013-05-10 20:45:00,57.3,55.0,29.97,SSW,206,15.0,16.0,92,0.00,,,0.02,0.00,VWS V14.01,2013-05-11 00:45:00,
2013-05-10 20:49:00,57.0,55.0,29.98,SSW,205,13.0,15.0,93,0.00,,,0.02,0.00,VWS V14.01,2013-05-11 00:49:00,
2013-05-10 20:54:00,57.0,55.0,29.98,SSW,198,14.0,15.0,93,0.00,,,0.02,0.00,VWS V14.01,2013-05-11 00:54:00,
2013-05-10 20:59:00,56.9,54.9,29.98,SSW,198,14.0,16.0,93,0.00,,,0.02,0.00,VWS V14.01,2013-05-11 00:59:00,
2013-05-10 21:00:00,57.4,55.1,29.98,SSW,213,14.0,16.0,92,0.00,,,0.02,0.00,VWS V14.01,2013-05-11 01:00:00,
2013-05-10 21:04:00,56.9,54.9,29.98,SSW,205,11.0,14.0,93,0.00,,,0.02,0.00,VWS V14.01,2013-05-11 01:04:00,
2013-05-10 21:09:00,56.8,54.8,29.98,SSW,207,12.0,15.0,93,0.00,,,0.02,0.00,VWS V14.01,2013-05-11 01:09:00,
2013-05-10 21:14:00,56.8,54.8,29.98,SSW,198,12.0,15.0,93,0.00,,,0.02,0.00,VWS V14.01,2013-05-11 01:14:00,
2013-05-10 21:15:00,57.3,55.0,29.98,SSW,208,12.0,18.0,92,0.00,,,0.02,0.00,VWS V14.01,2013-05-11 01:15:00,
2013-05-10 21:19:00,56.7,54.7,29.98,SSW,197,12.0,13.0,93,0.00,,,0.02,0.00,VWS V14.01,2013-05-11 01:19:00,
2013-05-10 21:24:00,56.6,54.6,29.98,SSW,196,12.0,14.0,93,0.00,,,0.02,0.00,VWS V14.01,2013-05-11 01:24:00,
2013-05-10 21:29:00,56.6,54.9,29.98,SSW,213,14.0,14.0,94,0.00,,,0.02,0.00,VWS V14.01,2013-05-11 01:29:00,
2013-05-10 21:30:00,57.2,55.2,29.98,SW,215,11.0,17.0,93,0.00,,,0.02,0.00,VWS V14.01,2013-05-11 01:30:00,
2013-05-10 21:34:00,56.6,54.9,29.98,SW,215,12.0,14.0,94,0.00,,,0.02,0.00,VWS V14.01,2013-05-11 01:34:00,
2013-05-10 21:39:00,56.5,54.8,29.98,SSW,213,10.0,14.0,94,0.00,,,0.02,0.00,VWS V14.01,2013-05-11 01:39:00,
2013-05-10 21:44:00,56.4,54.7,29.98,SSW,199,10.0,14.0,94,0.00,,,0.02,0.00,VWS V14.01,2013-05-11 01:44:00,
2013-05-10 21:45:00,57.0,55.0,29.98,SW,215,13.0,15.0,93,0.00,,,0.02,0.00,VWS V14.01,2013-05-11 01:45:00,
2013-05-10 21:49:00,56.3,54.6,29.98,SSW,195,12.0,13.0,94,0.00,,,0.02,0.00,VWS V14.01,2013-05-11 01:49:00,
2013-05-10 21:54:00,56.3,54.6,29.98,SW,214,7.0,13.0,94,0.00,,,0.02,0.00,VWS V14.01,2013-05-11 01:54:00,
2013-05-10 21:59:00,56.3,54.6,29.98,SSW,199,9.0,13.0,94,0.00,,,0.02,0.00,VWS V14.01,2013-05-11 01:59:00,
2013-05-10 22:00:00,56.9,54.9,29.98,SSW,205,14.0,16.0,93,0.00,,,0.02,0.00,VWS V14.01,2013-05-11 02:00:00,
2013-05-10 22:04:00,56.3,54.6,29.98,SSW,205,8.0,11.0,94,0.00,,,0.02,0.00,VWS V14.01,2013-05-11 02:04:00,
2013-05-10 22:09:00,56.3,54.6,29.98,SSW,209,11.0,12.0,94,0.00,,,0.02,0.00,VWS V14.01,2013-05-11 02:09:00,
2013-05-10 22:14:00,56.2,54.5,29.98,SSW,206,12.0,14.0,94,0.00,,,0.02,0.00,VWS V14.01,2013-05-11 02:14:00,
2013-05-10 22:15:00,56.7,54.7,29.98,SSW,199,13.0,15.0,93,0.00,,,0.02,0.00,VWS V14.01,2013-05-11 02:15:00,
2013-05-10 22:19:00,56.2,54.5,29.98,SSW,206,12.0,13.0,94,0.00,,,0.02,0.00,VWS V14.01,2013-05-11 02:19:00,
2013-05-10 22:24:00,56.2,54.5,29.98,SSW,204,12.0,13.0,94,0.00,,,0.02,0.00,VWS V14.01,2013-05-11 02:24:00,
2013-05-10 22:29:00,56.1,54.4,29.98,SSW,211,11.0,13.0,94,0.00,,,0.02,0.00,VWS V14.01,2013-05-11 02:29:00,
2013-05-10 22:30:00,56.6,54.9,29.98,SSW,213,13.0,16.0,94,0.00,,,0.02,0.00,VWS V14.01,2013-05-11 02:30:00,
2013-05-10 22:34:00,56.0,54.3,29.98,SSW,204,14.0,15.0,94,0.00,,,0.02,0.00,VWS V14.01,2013-05-11 02:34:00,
2013-05-10 22:39:00,56.0,54.3,29.98,SSW,201,14.0,15.0,94,0.00,,,0.02,0.00,VWS V14.01,2013-05-11 02:39:00,
2013-05-10 22:44:00,56.0,54.3,29.98,SSW,202,14.0,16.0,94,0.00,,,0.02,0.00,VWS V14.01,2013-05-11 02:44:00,
2013-05-10 22:45:00,56.4,54.7,29.98,SSW,205,10.0,14.0,94,0.00,,,0.02,0.00,VWS V14.01,2013-05-11 02:45:00,
2013-05-10 22:49:00,55.9,54.2,29.98,SSW,202,13.0,15.0,94,0.00,,,0.02,0.00,VWS V14.01,2013-05-11 02:49:00,
2013-05-10 22:54:00,56.0,54.3,29.97,SW,229,13.0,15.0,94,0.00,,,0.02,0.00,VWS V14.01,2013-05-11 02:54:00,
2013-05-10 22:59:00,56.0,54.3,29.97,SSW,202,11.0,15.0,94,0.00,,,0.02,0.00,VWS V14.01,2013-05-11 02:59:00,
2013-05-10 23:00:00,56.3,54.6,29.98,SSW,202,9.0,13.0,94,0.00,,,0.02,0.00,VWS V14.01,2013-05-11 03:00:00,
2013-05-10 23:04:00,55.9,54.2,29.97,SSW,202,12.0,14.0,94,0.00,,,0.02,0.00,VWS V14.01,2013-05-11 03:04:00,
2013-05-10 23:09:00,55.9,54.2,29.97,SSW,205,11.0,14.0,94,0.00,,,0.02,0.00,VWS V14.01,2013-05-11 03:09:00,
2013-05-10 23:14:00,55.9,54.2,29.97,SSW,201,11.0,14.0,94,0.00,,,0.02,0.00,VWS V14.01,2013-05-11 03:14:00,
2013-05-10 23:15:00,56.2,54.5,29.98,SSW,205,11.0,14.0,94,0.00,,,0.02,0.00,VWS V14.01,2013-05-11 03:15:00,
2013-05-10 23:19:00,55.9,54.2,29.97,SSW,209,10.0,12.0,94,0.00,,,0.02,0.00,VWS V14.01,2013-05-11 03:19:00,
2013-05-10 23:24:00,55.9,54.5,29.97,SSW,194,9.0,12.0,95,0.00,,,0.02,0.00,VWS V14.01,2013-05-11 03:24:00,
2013-05-10 23:29:00,55.9,54.5,29.97,SSW,211,10.0,12.0,95,0.00,,,0.02,0.00,VWS V14.01,2013-05-11 03:29:00,
2013-05-10 23:30:00,56.1,54.4,29.98,SSW,207,13.0,14.0,94,0.00,,,0.02,0.00,VWS V14.01,2013-05-11 03:30:00,
2013-05-10 23:34:00,56.0,54.6,29.97,SSW,197,10.0,12.0,95,0.00,,,0.02,0.00,VWS V14.01,2013-05-11 03:34:00,
2013-05-10 23:39:00,55.9,54.2,29.97,South,185,10.0,12.0,94,0.00,,,0.02,0.00,VWS V14.01,2013-05-11 03:39:00,
2013-05-10 23:44:00,55.8,54.4,29.97,South,189,11.0,12.0,95,0.00,,,0.02,0.00,VWS V14.01,2013-05-11 03:44:00,
2013-05-10 23:45:00,56.0,54.3,29.98,SSW,202,14.0,16.0,94,0.00,,,0.02,0.00,VWS V14.01,2013-05-11 03:45:00,
2013-05-10 23:49:00,55.9,54.5,29.97,SSW,205,12.0,13.0,95,0.00,,,0.02,0.00,VWS V14.01,2013-05-11 03:49:00,
2013-05-10 23:55:00,55.8,54.4,29.97,SSW,205,12.0,16.0,95,0.00,,,0.02,0.00,VWS V14.01,2013-05-11 03:55:00,